Main page
METAR-TAF:

METAR-TAF

Airports :

Sarh Airport

Sarh, Chad

latitude: 09-09N, longitude: 018-23E, elevation: 365 m

Current weather observation

The report was made 12 hours and 28 minutes ago, at 13:00 UTC
Wind 6 kt from the East/Northeast
Temperature 40°C
Humidity 9%
Pressure 1006 hPa
Visibility 10 km or more
no clouds below 1500 m and no cumulonimbus

METAR: FTTA 201300Z 06006KT CAVOK 40/01 Q1006

Time: 02:28 (01:28 UTC)


TAF: missing

Weather observations and forecasts of more than 4000 airports (METAR and TAF reports).

The available stations are represented by yellow and red dots on the map.

Hover mouse over dot to see the name of the station.

Then click to see weather observations and forecasts.

To change the map : click on the green buttons with a black cross to zoom in, on the green button with a dash to zoom out, or on the green arrows for adjacent maps.


METAR-TAF: